FW6591 Weather Reports


time (UTC)temp
C
wind
direction
speed
KPH
gust
KPH
rain 1hr
cm
rain 24hr
cm
rain mn
cm
humidity
%
barometer
mb
20260903123058 16 197 6.4 17.7 0.00 0.00 0.00 85 1016.2
20260903121546 17 337 3.2 9.7 0.00 0.00 0.00 81 1016.2
20260903114558 17 202 8.0 19.3 0.00 0.00 0.00 81 1016.4
20260903113131 17 207 6.4 14.5 0.00 0.00 0.00 81 1016.3
20260903111549 16 238 6.4 14.5 0.00 0.00 0.00 82 1016.3
20260903110100 16 189 4.8 12.9 0.00 0.00 0.00 82 1016.1
20260903104557 16 185 3.2 6.4 0.00 0.00 0.00 82 1016.3
20260903103052 16 190 1.6 3.2 0.00 0.00 0.00 81 1016.2
20260903101547 16 0 0.0 3.2 0.00 0.00 0.00 82 1016.4
20260903100047 16 220 1.6 6.4 0.00 0.00 0.00 84 1016.5
20260903094558 15 196 1.6 4.8 0.00 0.00 0.00 85 1016.6
20260903093051 15 278 1.6 4.8 0.00 0.00 0.00 87 1016.8
20260903091551 15 352 1.6 8.0 0.00 0.00 0.00 87 1016.8
20260903090050 15 346 3.2 6.4 0.00 0.00 0.00 89 1017.0
20260903084548 14 343 1.6 4.8 0.00 0.00 0.00 92 1016.9
20260903083056 13 337 1.6 6.4 0.00 0.00 0.00 92 1016.9
20260903081549 13 360 0.0 3.2 0.00 0.00 0.00 93 1017.0
20260903080049 13 352 3.2 3.2 0.00 0.00 0.00 93 1017.0
20260903074557 13 15 1.6 3.2 0.00 0.00 0.00 94 1016.9
20260903073056 13 351 0.0 3.2 0.00 0.00 0.00 93 1016.8
20260903071559 13 186 0.0 3.2 0.00 0.00 0.00 94 1016.7
20260903070047 13 0 0.0 1.6 0.00 0.00 0.00 94 1016.4
20260903064600 12 0 0.0 3.2 0.00 0.00 0.00 94 1016.2
20260903063053 12 0 0.0 3.2 0.00 0.00 0.00 94 1016.2
20260903061558 12 186 1.6 3.2 0.00 0.00 0.00 93 1016.1
20260903060104 12 194 1.6 4.8 0.00 0.00 0.00 94 1015.7
20260903054556 12 198 0.0 3.2 0.00 0.00 0.00 94 1015.5
20260903053053 12 194 1.6 6.4 0.00 0.00 0.00 94 1015.1
20260903051607 12 221 0.0 3.2 0.00 0.00 0.00 94 1014.8
20260903050055 12 196 0.0 3.2 0.00 0.00 0.00 94 1014.5
20260903044559 12 0 0.0 3.2 0.00 0.00 0.00 94 1014.2
20260903043145 12 192 0.0 3.2 0.00 0.00 0.00 94 1013.9
20260903041549 12 0 0.0 3.2 0.00 0.00 0.00 94 1014.2
20260903040047 12 192 1.6 4.8 0.00 0.00 0.00 94 1013.8
20260903034551 12 238 1.6 8.0 0.00 0.00 0.00 94 1014.4
20260903033049 12 186 3.2 4.8 0.00 0.00 0.00 94 1014.1
20260903031545 12 197 1.6 3.2 0.00 0.00 0.00 94 1013.9
20260903030046 12 202 1.6 4.8 0.00 0.00 0.00 94 1014.2
20260903024551 12 180 1.6 4.8 0.00 0.00 0.00 94 1014.3
20260903023045 12 219 3.2 8.0 0.00 0.00 0.00 94 1014.2
20260903021554 12 198 1.6 4.8 0.00 0.00 0.00 94 1014.2
20260903020055 12 221 1.6 8.0 0.00 0.00 0.00 94 1014.3
20260903014553 12 209 3.2 8.0 0.00 0.00 0.00 94 1014.5
20260903013107 12 179 3.2 9.7 0.00 0.00 0.00 94 1014.5
20260903011558 12 219 1.6 6.4 0.00 0.00 0.00 93 1014.4
20260903010056 12 180 4.8 9.7 0.00 0.00 0.00 93 1014.8
20260903004550 12 226 3.2 11.3 0.00 0.00 0.00 93 1015.0
20260903003050 12 189 3.2 6.4 0.00 0.00 0.00 93 1015.0
20260903001556 12 213 1.6 8.0 0.00 0.00 0.00 93 1015.3
20260903000056 12 180 1.6 6.4 0.00 0.00 0.00 93 1015.4
20260902234614 12 199 0.0 6.4 0.00 0.00 0.00 93 1015.5
20260902233045 12 202 1.6 6.4 0.00 0.00 0.00 92 1016.0
20260902231553 12 246 1.6 3.2 0.00 0.00 0.00 92 1016.1
20260902230050 12 229 1.6 3.2 0.00 0.00 0.00 92 1017.2
20260902224610 12 209 3.2 9.7 0.00 0.00 0.00 92 1017.1
20260902223051 12 167 3.2 12.9 0.00 0.00 0.00 91 1017.5
20260902221602 12 213 3.2 8.0 0.00 0.00 0.00 91 1017.8
20260902220050 12 205 3.2 6.4 0.00 0.00 0.00 91 1017.9
20260902214601 12 165 1.6 8.0 0.00 0.00 0.00 91 1018.0
20260902213050 12 196 3.2 9.7 0.00 0.00 0.00 90 1018.3
20260902211547 12 209 0.0 6.4 0.00 0.00 0.00 90 1018.4
20260902210057 12 210 1.6 9.7 0.00 0.00 0.00 89 1018.4
20260902204555 12 188 6.4 11.3 0.00 0.00 0.00 89 1018.7
20260902203049 13 196 4.8 8.0 0.00 0.00 0.00 88 1018.9
20260902201603 13 138 3.2 9.7 0.00 0.00 0.00 87 1018.9
20260902200132 13 160 1.6 3.2 0.00 0.00 0.00 87 1018.8
20260902194555 13 180 4.8 11.3 0.00 0.00 0.00 86 1018.3
20260902193051 14 0 0.0 3.2 0.00 0.00 0.00 86 1018.6
20260902191550 14 181 0.0 3.2 0.00 0.00 0.00 84 1019.0
20260902190103 14 212 0.0 3.2 0.00 0.00 0.00 82 1019.3
20260902184557 15 0 0.0 3.2 0.00 0.00 0.00 81 1019.4
20260902183057 15 224 0.0 3.2 0.00 0.00 0.00 80 1019.7
20260902181549 15 0 0.0 3.2 0.00 0.00 0.00 78 1019.7
20260902180117 15 345 0.0 3.2 0.00 0.00 0.00 77 1019.7
20260902174555 15 351 0.0 3.2 0.00 0.00 0.00 76 1019.8
20260902173047 15 0 0.0 3.2 0.00 0.00 0.00 77 1019.5
20260902171601 16 0 0.0 4.8 0.00 0.00 0.00 77 1019.7
20260902170103 16 260 0.0 3.2 0.00 0.00 0.00 76 1019.5
20260902164559 16 0 0.0 4.8 0.00 0.00 0.00 75 1019.5
20260902163058 16 231 0.0 3.2 0.00 0.00 0.00 74 1019.6
20260902161554 16 292 0.0 9.7 0.00 0.00 0.00 74 1019.0
20260902160106 17 213 1.6 4.8 0.00 0.00 0.00 72 1019.6
20260902154556 18 210 3.2 6.4 0.00 0.00 0.00 70 1019.6
20260902153054 18 198 3.2 8.0 0.00 0.00 0.00 69 1019.3
20260902151553 18 168 4.8 11.3 0.00 0.00 0.00 70 1018.7
20260902150049 19 236 1.6 11.3 0.00 0.00 0.00 66 1019.5
20260902144558 20 16 4.8 12.9 0.00 0.00 0.00 64 1018.8
20260902143057 20 213 6.4 14.5 0.00 0.00 0.00 64 1019.5
20260902141550 20 200 8.0 16.1 0.00 0.00 0.00 66 1019.4
20260902140048 20 214 6.4 14.5 0.00 0.00 0.00 64 1019.4
20260902134546 21 165 4.8 9.7 0.00 0.00 0.00 64 1019.5
20260902133046 21 224 3.2 11.3 0.00 0.00 0.00 61 1019.3
20260902131551 21 173 1.6 6.4 0.00 0.00 0.00 62 1019.5
20260902130045 21 52 1.6 8.0 0.00 0.00 0.00 60 1019.7
20260902124557 21 242 1.6 6.4 0.00 0.00 0.00 60 1019.9